DW1595 Weather Reports


Display with metric or nautical units.
time (UTC)temp
F
wind
direction
speed
MPH
gust
MPH
rain 1hr
in
rain 24hr
in
rain mn
in
humidity
%
barometer
mb
20191022014657 79 240 0.0 0.0 0.00 0.00 0.00 25 1013.5
20191022013041 81 240 0.0 0.0 0.00 0.00 0.00 23 1013.0
20191022011600 82 240 0.0 0.0 0.00 0.00 0.00 23 1012.9
20191022010112 84 240 0.0 0.0 0.00 0.00 0.00 22 1012.8
20191022004605 85 238 1.0 0.0 0.00 0.00 0.00 21 1012.6
20191022003049 87 245 1.0 0.0 0.00 0.00 0.00 20 1012.6
20191022001551 88 307 0.0 0.0 0.00 0.00 0.00 20 1012.5
20191022000116 88 308 0.0 0.0 0.00 0.00 0.00 19 1012.4
20191021234631 89 308 1.0 0.0 0.00 0.00 0.00 18 1012.4
20191021233112 90 308 0.0 0.0 0.00 0.00 0.00 18 1012.4
20191021231541 91 307 1.0 0.0 0.00 0.00 0.00 17 1012.4
20191021230051 91 308 0.0 0.0 0.00 0.00 0.00 18 1012.4
20191021224545 92 286 1.0 0.0 0.00 0.00 0.00 17 1012.3
20191021223126 92 286 1.0 0.0 0.00 0.00 0.00 17 1012.3
20191021221539 92 277 1.0 0.0 0.00 0.00 0.00 17 1012.3
20191021220105 92 343 2.0 0.0 0.00 0.00 0.00 17 1012.3
20191021214547 92 327 2.0 0.0 0.00 0.00 0.00 17 1012.3
20191021213056 92 200 1.0 0.0 0.00 0.00 0.00 17 1012.4
20191021211553 92 263 1.0 0.0 0.00 0.00 0.00 18 1012.5
20191021210051 92 209 1.0 0.0 0.00 0.00 0.00 17 1012.6
20191021204526 92 207 1.0 0.0 0.00 0.00 0.00 17 1012.7
20191021203043 91 176 1.0 0.0 0.00 0.00 0.00 17 1013.0
20191021201534 90 176 1.0 0.0 0.00 0.00 0.00 18 1013.1
20191021200018 90 170 1.0 0.0 0.00 0.00 0.00 17 1013.5
20191021194512 89 170 1.0 0.0 0.00 0.00 0.00 17 1013.6
20191021193014 88 170 1.0 0.0 0.00 0.00 0.00 18 1014.0
20191021191537 87 171 1.0 0.0 0.00 0.00 0.00 17 1014.2
20191021190003 86 171 1.0 0.0 0.00 0.00 0.00 19 1014.3
20191021184718 85 171 1.0 0.0 0.00 0.00 0.00 19 1014.3
20191021183125 84 171 1.0 0.0 0.00 0.00 0.00 20 1014.6
20191021181628 83 168 1.0 0.0 0.00 0.00 0.00 20 1014.5
20191021180103 82 147 2.0 0.0 0.00 0.00 0.00 21 1014.6
20191021174605 82 133 2.0 0.0 0.00 0.00 0.00 21 1014.7
20191021173159 81 131 1.0 0.0 0.00 0.00 0.00 21 1014.8
20191021171616 80 131 0.0 0.0 0.00 0.00 0.00 22 1014.7
20191021170040 79 133 1.0 0.0 0.00 0.00 0.00 23 1014.8
20191021164548 78 139 1.0 0.0 0.00 0.00 0.00 24 1014.8
20191021163149 0 0.0 0.0 0.00 0.00 0.00 1014.7
20191021161630 0 0.0 0.0 0.00 0.00 0.00 1014.6
20191021160051 0 0.0 0.0 0.00 0.00 0.00 1014.4
20191021154530 0 0.0 0.0 0.00 0.00 0.00 1014.3
20191021153122 0 0.0 0.0 0.00 0.00 0.00 1014.3
20191021151530 0 0.0 0.0 0.00 0.00 0.00 1013.8
20191021150026 0 0.0 0.0 0.00 0.00 0.00 1013.7
20191021144526 0 0.0 0.0 0.00 0.00 0.00 1013.4
20191021143208 0 0.0 0.0 0.00 0.00 0.00 1013.3
20191021141709 0 0.0 0.0 0.00 0.00 0.00 1013.3
20191021140154 0 0.0 0.0 0.00 0.00 0.00 1013.2
20191021134622 0 0.0 0.0 0.00 0.00 0.00 1013.0
20191021133147 56 338 0.0 0.0 0.00 0.00 0.00 53 1012.8
20191021131642 56 339 0.0 0.0 0.00 0.00 0.00 54 1012.7
20191021130136 56 338 0.0 0.0 0.00 0.00 0.00 54 1012.4
20191021124613 56 338 0.0 0.0 0.00 0.00 0.00 55 1012.3
20191021123141 56 338 0.0 0.0 0.00 0.00 0.00 55 1012.2
20191021121614 56 339 0.0 0.0 0.00 0.00 0.00 55 1012.1
20191021120110 56 339 0.0 0.0 0.00 0.00 0.00 55 1011.9
20191021114559 56 339 0.0 0.0 0.00 0.00 0.00 54 1011.9
20191021113111 57 339 0.0 0.0 0.00 0.00 0.00 53 1011.9
20191021111607 57 339 0.0 0.0 0.00 0.00 0.00 53 1012.1
20191021110046 57 339 0.0 0.0 0.00 0.00 0.00 53 1012.2
20191021104544 57 339 0.0 0.0 0.00 0.00 0.00 54 1012.1
20191021103044 58 338 0.0 0.0 0.00 0.00 0.00 54 1012.1
20191021101555 58 339 0.0 0.0 0.00 0.00 0.00 55 1011.9
20191021100036 58 338 0.0 0.0 0.00 0.00 0.00 55 1012.0
20191021094607 58 338 0.0 0.0 0.00 0.00 0.00 54 1011.9
20191021093027 59 338 0.0 0.0 0.00 0.00 0.00 54 1012.1
20191021091533 59 338 0.0 0.0 0.00 0.00 0.00 54 1011.9
20191021090106 59 338 0.0 0.0 0.00 0.00 0.00 53 1012.1
20191021084558 59 338 0.0 0.0 0.00 0.00 0.00 52 1012.0
20191021083022 60 339 0.0 0.0 0.00 0.00 0.00 52 1012.0
20191021081541 60 339 0.0 0.0 0.00 0.00 0.00 53 1011.9
20191021080112 60 339 0.0 0.0 0.00 0.00 0.00 53 1011.9
20191021074539 60 339 0.0 0.0 0.00 0.00 0.00 52 1011.8
20191021073033 61 339 0.0 0.0 0.00 0.00 0.00 52 1011.8
20191021071511 61 339 0.0 0.0 0.00 0.00 0.00 50 1011.9
20191021070020 62 339 0.0 0.0 0.00 0.00 0.00 49 1011.9
20191021064516 62 339 0.0 0.0 0.00 0.00 0.00 48 1011.9
20191021063034 63 339 0.0 0.0 0.00 0.00 0.00 48 1011.9
20191021061510 63 338 0.0 0.0 0.00 0.00 0.00 47 1011.8
20191021060007 63 339 0.0 0.0 0.00 0.00 0.00 46 1011.9
20191021054509 64 338 0.0 0.0 0.00 0.00 0.00 46 1011.9
20191021053010 64 338 0.0 0.0 0.00 0.00 0.00 45 1011.6
20191021051503 64 339 0.0 0.0 0.00 0.00 0.00 44 1011.3
20191021050013 65 339 0.0 0.0 0.00 0.00 0.00 44 1011.2
20191021044512 66 339 0.0 0.0 0.00 0.00 0.00 43 1011.1
20191021043002 66 339 0.0 0.0 0.00 0.00 0.00 44 1010.8
20191021041505 66 339 0.0 0.0 0.00 0.00 0.00 44 1010.7
20191021040210 66 338 0.0 0.0 0.00 0.00 0.00 45 1010.3
20191021034658 67 338 0.0 0.0 0.00 0.00 0.00 45 1010.2
20191021033127 67 338 0.0 0.0 0.00 0.00 0.00 45 1010.2
20191021031857 68 338 0.0 0.0 0.00 0.00 0.00 44 1010.1
20191021030330 69 339 0.0 0.0 0.00 0.00 0.00 43 1010.1
20191021024707 70 339 0.0 0.0 0.00 0.00 0.00 42 1009.9
20191021023152 71 339 0.0 0.0 0.00 0.00 0.00 43 1009.7
20191021021649 72 338 0.0 0.0 0.00 0.00 0.00 43 1009.7
20191021020248 73 338 0.0 0.0 0.00 0.00 0.00 41 1009.6